This demonstration page uses our WeatherBlox Daily Observations layout. Learn more.

39.08367, -84.50855

Hourly Observations for January 24, 2019

Temp ( °F °C ) Dew Point ( °F °C ) Humidity (%) Winds ( mph kmh ) Pressure ( in mb ) Visibility ( mi km ) Precip ( " mm )
12:02 am 00:02 Cloudy with Light Rain 33 0.6 31 -0.6 92 92 W 9 15 29.8 1009 3 4.828032 0.01 0.254
12:09 am 00:09 Cloudy with Light Wintry Mix 33 0.6 31 -0.6 92 92 VRB 7 11 29.8 1009 4 6.437376 0.01 0.254
12:53 am 00:53 Cloudy with Light Wintry Mix 32 0 28 -2.2 85 85 NW 9 15 29.74 1007 7 11.265408 0.02 0.508
1:36 am 01:36 Cloudy with Light Snow 31 -0.6 27 -2.8 85 85 NW 10 17 29.8 1009 3 4.828032 0.01 0.254
1:53 am 01:53 Cloudy with Light Snow 31 -0.6 27 -2.8 85 85 NW 10 17 29.74 1007 1.75 2.816352 0.01 0.254
2:02 am 02:02 Cloudy with Light Snow 30 -1.1 27 -2.8 88 88 NW 12 19 29.8 1009 2.5 4.02336 0.001 0.001
2:22 am 02:22 Cloudy with Light Snow 30 -1.1 27 -2.8 88 88 NW 9 15 29.8 1009 3 4.828032 0.01 0.254
2:53 am 02:53 Cloudy 30 -1.1 27 -2.8 88 88 WNW 7 11 29.77 1008 7 11.265408 0.01 0.254
3:53 am 03:53 Cloudy 30 -1.1 26 -3.3 85 85 WNW 8 13 29.77 1008 8 12.874752 0 0
4:53 am 04:53 Cloudy 29 -1.7 25 -3.9 85 85 WNW 13 20 29.8 1009 9 14.484096 0 0
5:53 am 05:53 Cloudy 29 -1.7 25 -3.9 85 85 NW 8 13 29.8 1009 10 16.09344 0 0
6:53 am 06:53 Cloudy 28 -2.2 23 -5 81 81 W 15 24 29.83 1010 9 14.484096 0 0
7:53 am 07:53 Cloudy 27 -2.8 23 -5 85 85 W 14 22 29.85 1011 8 12.874752 0 0
8:53 am 08:53 Cloudy 27 -2.8 22 -5.6 81 81 W 10 17 29.88 1012 8 12.874752 0 0
9:48 am 09:48 Cloudy with Light Snow 27 -3 21 -6 80 80 W 15 24 29.97 1015 2.5 4.02336 0.001 0.001
9:53 am 09:53 Cloudy with Light Snow 27 -2.8 21 -6.1 78 78 W 13 20 29.94 1014 4 6.437376 0.001 0.001
10:53 am 10:53 Cloudy 27 -2.8 20 -6.7 75 75 WNW 12 19 29.94 1014 10 16.09344 0.001 0.001
11:53 am 11:53 Cloudy with Light Snow 26 -3.3 20 -6.7 78 78 WSW 10 17 29.97 1015 6 9.656064 0.001 0.001
12:53 pm 12:53 Cloudy 26 -3.3 19 -7.2 75 75 W 8 13 29.94 1014 10 16.09344 0.001 0.001
1:53 pm 13:53 Cloudy 27 -2.8 20 -6.7 75 75 WSW 12 19 29.94 1014 10 16.09344 0 0
2:53 pm 14:53 Cloudy 27 -2.8 20 -6.7 75 75 WSW 14 22 29.94 1014 10 16.09344 0 0
3:53 pm 15:53 Cloudy 28 -2.2 20 -6.7 72 72 SW 12 19 29.94 1014 10 16.09344 0 0
4:53 pm 16:53 Cloudy 29 -1.7 21 -6.1 72 72 SW 8 13 29.97 1015 10 16.09344 0 0
5:53 pm 17:53 Cloudy 30 -1.1 22 -5.6 72 72 SSW 7 11 29.97 1015 10 16.09344 0 0
6:00 pm 18:00 Cloudy 29 -1.7 22 -5.6 75 75 SSW 9 15 30.03 1017 10 16.09344 0 0
6:53 pm 18:53 Cloudy 31 -0.6 22 -5.6 69 69 WSW 15 24 30 1016 10 16.09344 0 0
7:28 pm 19:28 Cloudy 31 -0.6 22 -5.6 69 69 WSW 15 24 30.06 1018 10 16.09344 0 0
7:53 pm 19:53 Cloudy 31 -0.6 22 -5.6 69 69 SW 13 20 30.03 1017 10 16.09344 0 0
8:53 pm 20:53 Cloudy 31 -0.6 22 -5.6 69 69 WSW 15 24 30.03 1017 10 16.09344 0 0
9:53 pm 21:53 Cloudy 30 -1.1 22 -5.6 72 72 WNW 15 24 30.06 1018 10 16.09344 0.001 0.001
10:14 pm 22:14 Cloudy 29 -1.7 19 -7.2 66 66 W 17 28 30.09 1019 10 16.09344 0 0
10:53 pm 22:53 Cloudy 29 -1.7 19 -7.2 66 66 W 12 19 30.06 1018 10 16.09344 0 0
11:15 pm 23:15 Cloudy 29 -1.7 19 -7.2 66 66 WSW 14 22 30.09 1019 10 16.09344 0 0
11:53 pm 23:53 Cloudy 28 -2.2 16 -8.9 60 60 W 17 28 30.06 1018 10 16.09344 0 0

Powered by AerisWeather